Regional Weather Roundup
Issued by NWS

Home | Current Version | Previous Version | Graphics & Text | Print | Product List | Glossary On
Versions: 1 2 3 4 5 6 7 8 9 10 11 12 13 14 15 16 17 18 19 20 21 22 23 24 25 26 27 28 29 30 31 32 33 34 35 36 37 38 39 40 41 42 43 44 45 46 47 48 49 50
659
ASUS43 KBIS 301802
RWRND

NORTH DAKOTA REGIONAL WEATHER ROUNDUP
NATIONAL WEATHER SERVICE BISMARCK ND
100 PM CDT SAT JUL 30 2016

NOTE: "FAIR" INDICATES FEW OR NO CLOUDS BELOW 12,000 FEET WITH NO
SIGNIFICANT WEATHER AND/OR OBSTRUCTIONS TO VISIBILITY.


NDZ001>003-009>011-017-301900-
NORTHWEST NORTH DAKOTA

CITY           SKY/WX    TMP DP  RH WIND       PRES   REMARKS
WILLISTON      SUNNY     83  55  38 S10       29.85F
6HR MIN TEMP:  54; 6HR MAX TEMP:  83;

MINOT          MOSUNNY   85  60  42 SE9       29.86F
MINOT AFB      MOSUNNY   80  60  50 VRB5      29.85F
$$

NDZ018>021-031>035-040>046-301900-
SOUTHWEST NORTH DAKOTA

CITY           SKY/WX    TMP DP  RH WIND       PRES   REMARKS
BISMARCK       MOSUNNY   78  65  63 S14       29.89S
6HR MIN TEMP:  64; 6HR MAX TEMP:  78; 6HR PCP:  0.03;

DICKINSON      SUNNY     80  52  37 VRB3      29.87F
GARRISON         N/A     78  65  63 S5        29.88S
6HR MIN TEMP:  62; 6HR MAX TEMP:  78;

HETTINGER ARPT MOSUNNY   86  54  33 VRB5      29.90F
$$

NDZ004>008-012>016-024-026-027-054-301900-
NORTHEAST NORTH DAKOTA

CITY           SKY/WX    TMP DP  RH WIND       PRES   REMARKS
GRAND FORKS    MOSUNNY   80  63  55 S16G22    29.93S
GRND FRKS AFB  SUNNY     79  63  57 S16       29.93S
DEVILS LAKE    MOSUNNY   76  66  71 SE16      29.92F
$$

NDZ022-023-025-028>030-036>039-047>053-301900-
SOUTHEAST NORTH DAKOTA

CITY           SKY/WX    TMP DP  RH WIND       PRES   REMARKS
FARGO          MOSUNNY   80  63  55 S9        29.96F
6HR MIN TEMP:  66; 6HR MAX TEMP:  80;

JAMESTOWN      PTSUNNY   76  63  64 S14       29.93F
$$





USA.gov is the U.S. government's official web portal to all federal, state and local government web resources and services.